Weather History for Phuket, Thailand

Change the Weather History Date:

Tuesday, November 5, 2013

  Actual Average Record
Temperature  
Mean Temperature 81 °F -  
Max Temperature 92 °F 88 °F 95 °F (1996)
Min Temperature 70 °F 75 °F 70 °F (2013)
Cooling Degree Days 16    
Growing Degree Days 31 (Base 50)    
Moisture  
Dew Point 73 °F    
Average Humidity 73    
Maximum Humidity 94    
Minimum Humidity 46    
Precipitation  
Precipitation 0.00 in 0.22 in - ()
Sea Level Pressure  
Sea Level Pressure 29.85 in    
Wind  
Wind Speed 3 mph ()    
Max Wind Speed 12 mph    
Max Gust Speed -    
Visibility 5.0 miles    
Events      
Averages and records for this station are not official NWS values.
T = Trace of Precipitation, MM = Missing Value Source: Averaged Metar Reports

Daily Weather History Graph

Daily Weather History Graph

Search for Another Location

Airport:

Trip Planner

Search our weather history database for the weather conditions in past years. The results will help you decide how hot, cold, wet, or windy it might be!

Date:

Astronomy

Nov. 05, 2013 Rise Set
Actual Time 6:15 AM ICT 6:04 PM ICT
Civil Twilight 5:54 AM ICT 6:26 PM ICT
Nautical Twilight 5:29 AM ICT 6:51 PM ICT
Astronomical Twilight 5:04 AM ICT 7:16 PM ICT
Moon 7:44 AM ICT (11/5) 7:49 PM ICT (11/5)
Length of Visible Light 12h 31m
Length of Day
11h 48m
Waxing Crescent, 4% of the Moon is Illuminated
Nov 5
Waxing Crescent
Nov 10
First Quarter
Nov 17
Full
Nov 26
Last Quarter
Dec 3
New

Hourly Weather History & Observations

Time (ICT) Temp. Heat Index Dew Point Humidity Pressure Visibility Wind Dir Wind Speed Gust Speed Precip Events Conditions
12:00 AM 77.0 °F - 75.2 °F 94% 29.89 in 5.0 mi Calm Calm - N/A   Mostly Cloudy
12:30 AM 77.0 °F - 75.2 °F 94% 29.89 in 5.0 mi East 2.3 mph - N/A   Mostly Cloudy
1:00 AM 78 °F - 76 °F 94% 29.88 in 6 mi Calm Calm - -   Scattered Clouds
2:00 AM 78.8 °F - 71.6 °F 78% 29.86 in 5.0 mi Calm Calm - N/A   Mostly Cloudy
3:30 AM 75.2 °F - 71.6 °F 89% 29.86 in 5.0 mi Calm Calm - N/A   Mostly Cloudy
4:00 AM 75.2 °F - 71.6 °F 89% 29.86 in 5.0 mi Calm Calm - N/A   Mostly Cloudy
5:00 AM 75.2 °F - 71.6 °F 89% 29.86 in 5.0 mi ESE 3.5 mph - N/A   Mostly Cloudy
6:00 AM 75.2 °F - 71.6 °F 89% 29.86 in 5.0 mi Calm Calm - N/A   Mostly Cloudy
6:30 AM 75.2 °F - 71.6 °F 89% 29.86 in 4.3 mi Calm Calm - N/A   Mostly Cloudy
7:00 AM 75 °F - 74 °F 94% 29.84 in 6 mi Calm Calm - -   Scattered Clouds
7:00 AM 77.0 °F - 73.4 °F 89% 29.89 in 4.3 mi Calm Calm - N/A   Mostly Cloudy
7:30 AM 78.8 °F - 73.4 °F 83% 29.89 in 4.3 mi East 3.5 mph - N/A   Mostly Cloudy
8:00 AM 82.4 °F 88.2 °F 73.4 °F 74% 29.89 in 4.3 mi ENE 9.2 mph - N/A   Mostly Cloudy
8:30 AM 82.4 °F 87.2 °F 71.6 °F 70% 29.89 in 5.0 mi ENE 6.9 mph - N/A   Mostly Cloudy
9:00 AM 84.2 °F 89.6 °F 71.6 °F 66% 29.89 in 5.0 mi East 6.9 mph - N/A   Mostly Cloudy
9:30 AM 86.0 °F 93.4 °F 73.4 °F 66% 29.89 in 5.0 mi East 8.1 mph - N/A   Mostly Cloudy
10:00 AM 86.0 °F 93.4 °F 73.4 °F 66% 29.89 in 5.0 mi Variable 4.6 mph - N/A   Mostly Cloudy
10:30 AM 86.0 °F 93.4 °F 73.4 °F 66% 29.89 in 5.0 mi NNE 5.8 mph - N/A   Mostly Cloudy
11:00 AM 87.8 °F 93.8 °F 71.6 °F 58% 29.89 in 5.0 mi ENE 6.9 mph - N/A   Mostly Cloudy
11:30 AM 89.6 °F 96.2 °F 71.6 °F 55% 29.86 in 5.0 mi ENE 11.5 mph - N/A   Mostly Cloudy
12:00 PM 89.6 °F 94.7 °F 69.8 °F 52% 29.86 in 5.0 mi East 10.4 mph - N/A   Mostly Cloudy
12:30 PM 87.8 °F 92.6 °F 69.8 °F 55% 29.83 in 5.0 mi Variable 2.3 mph - N/A   Mostly Cloudy
1:00 PM 91 °F - 72 °F 46% 29.81 in 6 mi ENE 3.5 mph - -   Scattered Clouds
1:00 PM 87.8 °F 97.6 °F 75.2 °F 66% 29.83 in 5.0 mi Variable 3.5 mph - N/A   Mostly Cloudy
1:30 PM 86.0 °F 93.4 °F 73.4 °F 66% 29.80 in 5.0 mi Variable 2.3 mph - N/A   Mostly Cloudy
2:00 PM 84.2 °F 89.6 °F 71.6 °F 66% 29.80 in 5.0 mi WNW 3.5 mph - N/A   Mostly Cloudy
2:30 PM 86.0 °F 93.4 °F 73.4 °F 66% 29.80 in 5.0 mi West 9.2 mph - N/A   Mostly Cloudy
3:00 PM 86.0 °F 93.4 °F 73.4 °F 66% 29.77 in 5.0 mi West 9.2 mph - N/A   Mostly Cloudy
3:30 PM 87.8 °F 93.8 °F 71.6 °F 58% 29.77 in 5.0 mi West 6.9 mph - N/A   Mostly Cloudy
4:00 PM 86.0 °F 93.4 °F 73.4 °F 66% 29.77 in 5.0 mi West 10.4 mph - N/A   Mostly Cloudy
4:30 PM 86.0 °F 91.8 °F 71.6 °F 62% 29.77 in 5.0 mi West 9.2 mph - N/A   Mostly Cloudy
5:00 PM 86.0 °F 91.8 °F 71.6 °F 62% 29.77 in 5.0 mi West 9.2 mph - N/A   Mostly Cloudy
5:30 PM 84.2 °F 90.9 °F 73.4 °F 70% 29.80 in 5.0 mi WNW 8.1 mph - N/A   Mostly Cloudy
6:00 PM 82.4 °F 88.2 °F 73.4 °F 74% 29.80 in 5.0 mi WNW 5.8 mph - N/A   Mostly Cloudy
6:30 PM 82.4 °F 88.2 °F 73.4 °F 74% 29.80 in 5.0 mi West 6.9 mph - N/A   Mostly Cloudy
7:00 PM 85 °F - 75 °F 64% 29.78 in 6 mi WNW 3.5 mph - -   Scattered Clouds
7:00 PM 82.4 °F 88.2 °F 73.4 °F 74% 29.83 in 5.0 mi NW 5.8 mph - N/A   Mostly Cloudy
7:30 PM 82.4 °F 88.2 °F 73.4 °F 74% 29.83 in 5.0 mi NW 4.6 mph - N/A   Mostly Cloudy
8:00 PM 82.4 °F 88.2 °F 73.4 °F 74% 29.86 in 4.3 mi NW 5.8 mph - N/A   Mostly Cloudy
8:30 PM 82.4 °F 88.2 °F 73.4 °F 74% 29.86 in 5.0 mi WNW 5.8 mph - N/A   Mostly Cloudy
9:00 PM 82.4 °F 89.5 °F 75.2 °F 79% 29.86 in 5.0 mi ENE 3.5 mph - N/A   Mostly Cloudy
9:30 PM 80.6 °F 86.2 °F 75.2 °F 84% 29.89 in 4.3 mi Calm Calm - N/A   Mostly Cloudy
10:00 PM 80.6 °F 84.6 °F 71.6 °F 74% 29.89 in 4.3 mi ENE 5.8 mph - N/A   Mostly Cloudy
10:30 PM 80.6 °F 84.6 °F 71.6 °F 74% 29.89 in 4.3 mi Calm Calm - N/A   Mostly Cloudy
11:00 PM 80.6 °F 84.6 °F 71.6 °F 74% 29.89 in 5.0 mi Calm Calm - N/A   Mostly Cloudy
11:30 PM 80.6 °F 84.6 °F 71.6 °F 74% 29.89 in 5.0 mi NNE 5.8 mph - N/A   Mostly Cloudy